THOR ABLESTAR DEB, 133

Orbit data source: Space-Track

THOR ABLESTAR DEB, 133 is space debris in LEO originally from a launch on Thu, 29 Jun 1961 UTC launched from the Air Force Eastern Test Range (AFETR). Debris objects in space refer to the collection of defunct objects orbiting the Earth. Examples of debris include non-operational satellites, rocket bodies, and fragments generated from explosions, collisions, or faulty payload assembly.

Loading next visibility...
Identifier
133, 1961-015T
Orbit
LEO
Country
Flag of USUS
Related business
Manufacturer
Unknown
Mission
Spacecraft
Bus & Motor
Unknown
Mass
Unknown
Launch date (UTC)
1961-06-29 (65 years ago)
Launch vehicle
Unknown
Launch site
Air Force Eastern Test Range (AFETR)
Object type
Payload
Rocket body
Debris
Shape & HBR
Unknown shape, 0.6 m
Radar Cross Section
Medium (>0.1 m² and <1 m²)

Expand to show TLE details & history
Last TLE update: 20 hours ago

TLE from 20 hours ago
0 THOR ABLESTAR DEB
1 00133U 61015T   26036.73817006  .00001774  00000-0  81250-3 0  9997
2 00133  67.1135 193.8092 0055297 245.9971 113.5333 14.22803895314783
Epoch: 2026-02-05T17:42Z
TLE epoch observation values (Epoch: 2026-02-05T17:42:57.893Z)
Latitude
0.00004°
Longitude
152.18191°
Altitude
834.087 km
Speed
7.428 km/s
True Right ascension
12h 55m 14s
True Declination
0° 00' 00"
Sunlit
Object was in full shadow at epoch
Visualization orbit readout
Latitude
Unknown
Longitude
Unknown
Altitude
Unknown
Speed
Unknown
Apparent Right ascension
Unknown
Apparent Declination
Unknown
Sunlit
N/A
Visualization observer readout
Local Sidereal Time
16:05:40
Azimuth
Unknown
Elevation
Unknown
Doppler factor
Unknown
Orbital elements
Apogee altitude
853.99 km
Perigee altitude
774.447 km
Semi-major axis
7,192.355 km
Eccentricity
0.00553
Inclination
67.1135°
RAAN
193.8092°
Arg. of periapsis
245.9971°
True anomaly
114.11265°
Mean anomaly
113.5333°
Eccentric anomaly
113.82313°
Mean motion
3.55825 °/min
Orbital period
101.17 mins
BSTAR
0.0008125
Loading maneuver chart data...
Computing Atmospheric mass density...

Documentation

Showing up to 5 results
|